Regional Weather Roundup
Issued by NWS State College, PA

Home | Current Version | Previous Version | Text Only | Print | Product List | Glossary Off
Versions: 1 2 3 4 5 6 7 8 9 10 11 12 13 14 15 16 17 18 19 20 21 22 23 24 25 26 27 28 29 30 31 32 33 34 35 36 37 38 39 40 41 42 43 44 45 46 47 48 49 50

000
ASUS41 KCTP 031410
RWRCTP

REGIONAL WEATHER ROUNDUP
NATIONAL WEATHER SERVICE STATE COLLEGE PA
1000 AM EDT MON AUG 03 2015

Note: "fair" indicates few or no clouds below 12,000 feet with no
significant weather and/or obstructions to visibility.

* = STATION THAT DOES NOT REPORT PRECIPITATION /E.G. RAIN...SNOW...ETC/
    THUNDER OR FOG.

PAZ002>004-007>009-013>016-020>023-029>032-031500-
WESTERN PENNSYLVANIA

CITY           SKY/WX    TMP DP  RH WIND       PRES   REMARKS
ERIE           PTSUNNY   72  57  59 SW8       29.79R
MEADVILLE      PTSUNNY   70  56  61 VRB7      29.82R
FRANKLIN*      PTSUNNY   68  55  64 SW8       29.84S
NEW CASTLE     FAIR      72  62  70 VRB7      29.83S
BEAVER COUNTY  SUNNY     70  59  68 SW5       29.83R
BUTLER*        CLOUDY    70  59  68 SW5       29.85S
PITTSBURGH INT CLOUDY    71  58  63 SW7       29.83R
PITTSBURGH     CLOUDY    69  56  62 S13       29.83R
INDIANA*       SUNNY     70  63  78 W6        29.87R
LATROBE        NOT AVBL
WASHINGTON CO* NOT AVBL
$$

PAZ004>006-010>012-017>019-024>028-033>037-041-042-045-046-049>053-031500-
CENTRAL PENNSYLVANIA

CITY           SKY/WX    TMP DP  RH WIND       PRES   REMARKS
BRADFORD       CLOUDY    68  56  65 SW8       29.84R
DUBOIS         CLOUDY    70  60  70 SW10      29.84R
CLEARFIELD     CLOUDY    69  61  75 SW6       29.84S
JOHNSTOWN      MOSUNNY   72  58  61 S16G22    29.86F
ALTOONA        MOSUNNY   77  61  57 S8        29.86F
STATE COLLEGE  SUNNY     73  63  68 SW13      29.83F
WILLIAMSPORT   MOSUNNY   78  62  57 VRB6      29.79F
SELINSGROVE    SUNNY     77  63  61 VRB7      29.83F
FT INDIANTOWN  SUNNY     76  64  67 VRB5      29.86S
CAPITAL CITY   SUNNY     80  61  52 SW7       29.85S
HARRISBURG     SUNNY     79  62  56 CALM      29.85S
YORK           SUNNY     79  64  60 W5        29.87S
$$

PAZ038>040-043-044-047-048-054-055-060>062-067>071-031500-
EASTERN PENNSYLVANIA

CITY           SKY/WX    TMP DP  RH WIND       PRES   REMARKS
SCRANTON       SUNNY     79  62  56 SW12      29.82F
MOUNT POCONO   SUNNY     76  60  57 SW10      29.88F
ALLENTOWN      SUNNY     78  62  57 SW13      29.85F
QUAKERTOWN*    MOSUNNY   75  64  69 SW7       29.87F
READING        MOSUNNY   79  63  57 SW9       29.84F
LANCASTER      SUNNY     78  63  59 VRB5      29.86F
COATESVILLE    PTSUNNY   73  66  78 SW5       29.90R
POTTSTOWN      PTSUNNY   76  64  66 SW6       29.88S
BLUE BELL      SUNNY     81  64  57 SW10G16   29.86S
DOYLESTOWN     SUNNY     79  63  57 SW6       29.86S
WILLOW GROVE   NOT AVBL
NORTH PHILA    SUNNY     84  61  45 SW14G20   29.87S
PHILADELPHIA   MOSUNNY   83  63  50 SW15      29.87S
$$


USA.gov is the U.S. government's official web portal to all federal, state and local government web resources and services.